Location: Unspecified
(0.0000°N, 0.0000°E)
Time: 08:09:22
(UTC+00:00)

LES 2 - Pass Details

Date: 14 October 2025
Orbit: 2783 x 14792 km, 32.1° (Epoch: 30 October)

Event Time Altitude Azimuth Distance (km) Brightness Sun altitude
Exits shadow 00:47:20 29° 171° (S) 5,166 ? -72.7°
Drops below altitude 10° 01:02:05 10° 136° (SE) 8,661 ? -69.4°
Sets 01:13:59 0° 125° (SE) 11,540 ? -66.6°
